sat.trackr.live / text

‹ back to catalog

STARLINK-31920

NORAD 59907 · 2024-100Y

PAYLOAD ACTIVE UNKNOWN

§ Identity

Operator
Country
US
Launch date
2024-05-28
Launch site
AFETR
Launch vehicle
Mass (kg)
RCS (m²)

Purposes: comms

External: N2YO · Heavens-Above · Gunter

§ Orbital elements

Epoch: 2026-05-24T23:54:47.168928Z

Period
92.91 min
Inclination
42.9944°
Eccentricity
0.0021640
Mean motion
15.49875185 rev/d
Perigee alt
402.4 km
Apogee alt
431.8 km
Semi-major
6,795.2 km
B*
2.3360e-3
RAAN
11.7984°
Arg perigee
252.8332°
Mean anomaly
107.0158°
Rev number
11,330

§ Raw data

STARLINK-319201 59907U 24100Y   26144.99637927  .00136902  00000+0  23360-2 0  99922 59907  42.9944  11.7984 0021640 252.8332 107.0158 15.49875185113305

JSON: /api/v1/satellites/59907 · /tle

For live sub-satellite position, see the globe view (requires WebGL).

§ Visibility from observer

Set your observer location to see the next 7 days of passes ≥ 10°. The values pass through the URL so the page stays shareable.

No JS? Fill the form by hand. The geolocation button needs JavaScript.